Regional Weather Roundup
Issued by NWS

Home | Current Version | Previous Version | Text Only | Print | Product List | Glossary Off
Versions: 1 2 3 4 5 6 7 8 9 10 11 12 13 14 15 16 17 18 19 20 21 22 23 24 25 26 27 28 29 30 31 32 33 34 35 36 37 38 39 40 41 42 43 44 45 46 47 48 49 50

203
ASUS43 KMPX 141901
RWRMN
WEATHER ROUNDUP FOR MINNESOTA
NATIONAL WEATHER SERVICE TWIN CITIES/CHANHASSEN MN
100 PM CST SUN FEB 14 2016


NOTE: "FAIR" INDICATES FEW OR NO CLOUDS BELOW 12,000 FEET WITH NO
SIGNIFICANT WEATHER AND/OR OBSTRUCTIONS TO VISIBILITY. N/A MEANS
CURRENT SKY AND/OR WEATHER CONDITIONS ARE NOT AVAILABLE.

MNZ060>063-068>070-142000-
   Twin Cities Metro

CITY           SKY/WX    TMP DP  RH WIND       PRES   REMARKS
TWIN CITIES    LGT SNOW  18  10  71 SE14G29   29.97F WCI   4
ST PAUL        FLURRIES  18  11  74 SE13      29.99F WCI   5
CRYSTAL        LGT SNOW  19  11  70 S13G23    29.95F WCI   6
BLAINE         LGT SNOW  19  12  73 SE12G17   29.96F WCI   7
LAKEVILLE      LGT SNOW  16  12  86 SE12G17   29.95F WCI   3
EDEN PRAIRIE   LGT SNOW  19  10  68 S16       29.94F WCI   4
SOUTH ST PAUL  LGT SNOW  18  11  73 SE12G18   29.98F WCI   6
LAKE ELMO      FLURRIES  19  12  73 SE16      29.99F WCI   5
$$
MNZ001>005-007-008-013>017-022>024-027-028-142000-
   Northwest Minnesota

CITY           SKY/WX    TMP DP  RH WIND       PRES   REMARKS
BEMIDJI        LGT SNOW  12   8  83 S12       29.80F WCI  -2
HALLOCK        LGT SNOW  18  14  86 S22       29.74F VSB 1   WCI   0
ROSEAU         LGT SNOW  16   9  73 S17       29.77F WCI   0
WARROAD        LGT SNOW  14  10  85 S9        29.79F VSB 1   WCI   2
THIEF RVR FALL CLOUDY    16   9  73 S20       29.77F WCI  -1
CROOKSTON      LGT SNOW  16  12  86 S24       29.78F WCI  -3
FOSSTON        CLOUDY    16   7  67 S15       29.78F WCI   1
DETROIT LAKES  FLURRIES  16  12  86 S15G22    29.79F WCI   1
MOORHEAD       MIX PCPN  16  12  86 S18       29.80F WCI  -1
PARK RAPIDS    LGT SNOW  14   8  77 S18       29.81F VSB 1   WCI  -3
MAHNOMEN       CLOUDY    15  10  80 S17       29.79F WCI  -2
$$
MNZ006-009>011-018-025>026-142000-
   North Central Minnesota

CITY           SKY/WX    TMP DP  RH WIND       PRES   REMARKS
BAUDETTE       LGT SNOW  12   6  77 S15       29.80F VSB 1   WCI  -4
FLAG ISLAND    LGT SNOW  12   9  85 S17       29.78F WCI  -5
INTL FALLS     LGT SNOW  13   3  64 VRB7G17   29.85F VSB 3/4 WCI   3
WASKISH        LGT SNOW  12   9  85 SE8G17    29.82F WCI   1
LONGVILLE      FLURRIES  12   7  79 SE10      29.85F WCI  -1
GRAND RAPIDS   CLOUDY    12   7  79 S17       29.87F WCI  -5
ORR            LGT SNOW  12   3  67 SE9       29.85F WCI   0
COOK           LGT SNOW  12   7  79 S10G18    29.90F WCI  -1
WALKER         LGT SNOW  11   6  80 SE8G16    29.83F WCI  -1
$$
MNZ012-019>021-037-142000-
   Northeast Minnesota

CITY           SKY/WX    TMP DP  RH WIND       PRES   REMARKS
DULUTH         LGT SNOW  11   6  81 S10       29.94F WCI  -3
ELY            FLURRIES  16   7  67 S13       29.91F WCI   2
HIBBING        LGT SNOW  10   4  76 SE12G18   29.90F WCI  -5
EVELETH        LGT SNOW  14   7  73 S10       29.93F WCI   1
DULUTH HARBOR  LGT SNOW  16   9  73 S5        30.03F WCI   9
TWO HARBORS    LGT SNOW  16   5  62 SE3       29.97F
SILVER BAY     CLOUDY    16   1  53 S8        29.98F WCI   5
GRAND MARAIS     N/A     19   6  57 S10       30.06F WCI   7
G MARAIS ARPRT CLOUDY    16   0  48 S13G18    29.95F WCI   2
$$
MNZ029>031-032-039>041-046>048-054>057-064-142000-
   West Central Minnesota

CITY           SKY/WX    TMP DP  RH WIND       PRES   REMARKS
FERGUS FALLS   LGT SNOW  16  12  86 S20       29.85F WCI  -1
WHEATON        PTSUNNY   19  14  79 SE17      29.83F WCI   4
MORRIS         CLOUDY    18  14  86 S20       29.82F FOG     WCI   1
ALEXANDRIA     LGT SNOW  16  11  80 S18       29.82F VSB 1   WCI   0
ELBOW LAKE     CLOUDY    16  12  86 S20       29.82F FOG     WCI  -1
WADENA         LGT SNOW  12   9  85 S15       29.82F WCI  -4
GLENWOOD       LGT SNOW  18  12  79 SE17      29.84F WCI   2
APPLETON       CLOUDY    19  12  73 SE10G17   29.83F WCI   8
BENSON         FLURRIES  19  12  73 S14       29.84F WCI   6
ORTONVILLE     CLOUDY    18  10  73 S14       29.82F WCI   4
MADISON        CLOUDY    21  14  73 S14       29.84F WCI   8
WILLMAR        LGT SNOW  19  16  86 S16G23    29.87F WCI   5
$$
MNZ033>034-036-042>043-049>051-058-059-142000-
   Central Minnesota

CITY           SKY/WX    TMP DP  RH WIND       PRES   REMARKS
ST CLOUD       CLOUDY    17   9  70 SE18      29.90F WCI   1
SAUK CENTRE    LGT SNOW  16  12  84 SE17      29.86F WCI   0
PAYNESVILLE    LGT SNOW  17  12  79 SE13G23   29.88F WCI   4
AITKIN         MIX PCPN  16   3  57 S15G22    29.88F WCI   1
PINE RIVER     LGT SNOW  12   9  85 S13       29.89F WCI  -3
BRAINERD       LGT SNOW  13   7  77 S15G21    29.88F WCI  -3
STAPLES        LGT SNOW  14   9  79 S14       29.84F WCI  -1
LONG PRAIRIE   LGT SNOW  16  12  86 SE16      29.85F WCI   0
LITTLE FALLS   LGT SNOW  18  10  73 SE14G20   29.89F WCI   4
LITCHFIELD     FLURRIES  18  14  86 SE9G16    29.89F WCI   6
BUFFALO        FLURRIES  19  11  70 SE13      29.94F WCI   6
MAPLE LAKE     CLOUDY    19  13  76 S12G18    29.92F WCI   7
$$
MNZ037-044-045-052-053-142000-
   East Central Minnesota

CITY           SKY/WX    TMP DP  RH WIND       PRES   REMARKS
PRINCETON      CLOUDY    19  10  68 SE14G21   29.93F WCI   6
MORA           CLOUDY    18   7  62 SE7       29.96F WCI   8
CAMBRIDGE      FLURRIES  19   9  63 SE13      29.93F WCI   7
RUSH CITY      CLOUDY    18   8  66 SE13      29.96F WCI   5
MOOSE LAKE     CLOUDY    14   5  67 SE6       29.94F WCI   5
HINCKLEY       CLOUDY    18   9  68 S13       29.96F WCI   4
CLOQUET        LGT SNOW  12   7  79 SE7       29.93F WCI   2
MCGREGOR       CLOUDY    16   9  73 SE13G18   29.92F WCI   2
$$
MNZ071>073-080-081-089-090-097-098-142000-
   Southwest Minnesota

CITY           SKY/WX    TMP DP  RH WIND       PRES   REMARKS
MONTEVIDEO     CLOUDY    21  14  73 S13G21    29.86F WCI   9
GRANITE FALLS  LGT SNOW  22  16  78 SE16      29.87F WCI   8
CANBY          CLOUDY    23  16  74 S9        29.84F WCI  13
MARSHALL       FLURRIES  21  13  71 S14       29.83F WCI   8
REDWOOD FALLS  LGT SNOW  19  13  77 SE18      29.87F WCI   4
OLIVIA         LGT SNOW  21  14  73 SE14      29.87F WCI   8
PIPESTONE      CLOUDY    19  10  68 S10       29.80S WCI   8
WINDOM         LGT SNOW  19  14  79 SE13      29.84F WCI   7
WORTHINGTON    CLOUDY    18  10  73 S14       29.83F WCI   4
JACKSON        LGT SNOW  19  12  73 SE10      29.85F WCI   8
TRACY          CLOUDY    20  15  78 S10       29.83F WCI   9
SLAYTON        CLOUDY    18  15  88 SE12      29.81F WCI   6
$$
MNZ065>067-074>077-082>085-091>093-142000-
   South Central Minnesota

CITY           SKY/WX    TMP DP  RH WIND       PRES   REMARKS
MANKATO        CLOUDY    18  12  79 SE18      29.91F WCI   2
NEW ULM        LGT SNOW  18  12  79 SE15      29.89F WCI   3
ST JAMES       LGT SNOW  19  16  86 SE15G22   29.89F WCI   5
FAIRMONT       CLOUDY    18  12  79 SE18      29.86F WCI   2
GLENCOE        LGT SNOW  20  15  81 SE14G20   29.91F WCI   7
FARIBAULT      CLOUDY    18  12  79 SE12G20   29.96F WCI   5
OWATONNA       LGT SNOW  18  10  73 SE21      29.92F WCI   1
WASECA         LGT SNOW  19  14  79 SE18G25   29.93F WCI   4
ALBERT LEA     LGT SNOW  18  12  79 SE17      29.91F WCI   2
$$
MNZ078>079-086>088-094>096-142000-
   Southeast Minnesota

CITY           SKY/WX    TMP DP  RH WIND       PRES   REMARKS
ROCHESTER      CLOUDY    16  10  77 SE21G30   29.95F BLWGSNOWWCI  -1
STANTON        LGT SNOW  20  11  69 S15G22    29.96F WCI   6
DODGE CENTER   LGT SNOW  16  10  79 S22       29.93F WCI  -2
WINONA         FLURRIES  19  12  73 SE10      30.05F WCI   8
AUSTIN         LGT SNOW  16  12  86 SE14G22   29.93F WCI   1
PRESTON        LGT SNOW  17  10  74 SE15G24   29.97F WCI   2
$$
ABBREVIATIONS USED IN REMARKS
   TC - TEMPERATURES IN CELSIUS
  WCI - WIND CHILL INDEX
   HX - HEAT INDEX
  VSB - VISIBILITY
$$




USA.gov is the U.S. government's official web portal to all federal, state and local government web resources and services.